User: anonymous   Login
Location: The D'Auria's Ocala Star Observatory
(29.0276°N, 82.1742°W)
Time: 10:27:34
(UTC-05:00)
Language:

Abrixas rocket - Orbit

View from above orbital plane
View from above orbital plane
View from above satellite
View from above satellite

Ground track
Ground track

The orbit data is extracted from the following two-line orbital elements,

1 25723U 99022C   15029.50396547  .00015520  00000-0  43481-3 0  8622
2 25723 048.4221 072.2776 0013948 211.6959 289.9748 15.36597782871883
Epoch (UTC): 29 January 2015 12:05:42
Eccentricity: 0.0013948
inclination: 48.4221°
perigee height: 446 km
apogee height: 466 km
right ascension of ascending node: 72.2776°
argument of perigee: 211.6959°
revolutions per day: 15.36597782
mean anomaly at epoch: 289.9748°
orbit number at epoch: 87188

The dashed part of the orbit path shows where the satellite is in the earth's shadow,  

DLR